Погода в Воронеже

Украина / Сумская область     51˚46′40″N   33˚27′49″E
темп.,
°C
ветер,
м/с
пор.,
м/с
влажн.,
%
обл.,
%
осадки,
мм/ч
давл.,
гПа
погр.,
м
5 декабря, сб
сб523:00−4˚юв612870 0.0 1031335
02:00−5˚юв512880 0.0 1032330
05:00−5˚юв512880 0.0 1032327
08:00−6˚юв512850 0.0 1033323
11:00−3˚юв611840 0.0 1034396
14:00−2˚юв511840 0.0 1034399
17:00−4˚юв511790 0.0 1034271
20:00−6˚юв512700 0.0 1035263
6 декабря, вс
вс623:00−7˚юв512730 0.0 1036221
02:00−8˚вюв410740 0.0 1037181
05:00−8˚вюв410740 0.0 1037193
08:00−8˚вюв511730 0.0 1038206
11:00−5˚вюв612720 0.0 1038297
14:00−4˚вюв511760 0.0 1038315
17:00−6˚вюв513810 0.0 1037284
20:00−6˚вюв513820 0.0 1038342
7 декабря, пн
пн723:00−7˚вюв613810 0.0 1038344
02:00−8˚вюв613810 0.0 1038350
05:00−8˚вюв613810 0.0 1037325
08:00−8˚вюв613810 0.0 1038338
11:00−6˚вюв712780 0.0 1037442
14:00−5˚вюв614750 0.0 1036482
17:00−6˚вюв615710 0.0 1035399
20:00−7˚вюв716690 0.0 1035394
8 декабря, вт
вт823:00−7˚вюв615750 0.0 1035382
02:00−7˚вюв616730 0.0 1035370
05:00−7˚вюв615750 0.0 1034374
08:00−6˚вюв616750 0.0 1034392
11:00−4˚вюв715700 0.0 1033478
14:00−3˚вюв715670 0.0 1032464
17:00−5˚вюв616660 0.0 1032400
20:00−6˚вюв616660 0.0 1032371
9 декабря, ср
ср923:00−6˚вюв614690 0.0 1032350
02:00−7˚вюв613720 0.0 1032335
05:00−7˚вюв613740 0.0 1031283
08:00−7˚вюв613740 0.0 1031281
11:00−5˚вюв612760 0.0 1031390
14:00−5˚вюв510780 0.0 1030613
17:00−6˚юв5118890 0.0 1030413
20:00−5˚юв5119295 0.1 1030427